Location: Stockholm
(59.3330°N, 18.0500°E)
Time: 13:29:29
(UTC+01:00)

Envisat - Pass Details

Date: 07 December 2022
Orbit: 763 x 765 km, 98.2° (Epoch: 29 January)

Event Time Altitude Azimuth Distance (km) Brightness Sun altitude
Rises 06:05:39 0° 15° (NNE) 3,250 6.2 -16.0°
Reaches altitude 10° 06:08:17 10° 3° (N) 2,319 5.3 -15.7°
Maximum altitude 06:12:26 26° 309° (NW) 1,489 4.0 -15.2°
Enters shadow 06:13:38 24° 287° (WNW) 1,573 4.0 -15.1°
